CAPE
1435 1292 1545 1712 1326 1274 1215 1073 950 1223 1421 1546 1321 1407 1522 1491 1563 1476 935 1912 2308 2339 2483 2435 2206 1912 1755 1682 1584 1515 1444 1384 1320 1255 1402 1389 1460 1440 1246 1024 885 870 975 1020 1149 1165 1140 1109 853 772 1423 1739 1747 1781 1763 1686 1688 1933 1918 2439 2794 2769 2559
1640 1754 2021 1894 1544 1437 1328 1199 1101 1152 1100 1087 1174 1231 1118 1260 1406 1259 1290 1119 1959 2112 2151 2378 2327 2053 1915 1748 1683 1604 1480 1377 1317 1581 1472 1372 1302 1199 1139 1052 898 784 857 953 991 1107 1123 1075 822 672 746 1433 1531 1426 1334 1272 1381 1563 1634 1702 1763 1523 1991
1677 1605 1574 1867 1685 1598 1440 1286 1191 1092 879 770 978 1416 1224 1316 1246 1116 1205 1423 1435 1528 1732 1849 2451 2313 2117 1962 1725 1558 1450 1290 1276 1504 1584 1359 1238 1086 912 869 871 810 852 951 942 918 1013 1077 866 430 505 545 1015 1232 1174 1034 1130 1482 1505 1239 1432 1572 1632
1654 1673 1648 1825 1914 1875 1720 1602 1544 1313 1130 898 873 1323 1291 1488 1169 1206 1095 1276 1363 1954 1928 1814 1657 1833 2034 1907 1661 1562 1485 1376 1305 1480 1605 1463 1269 1090 1132 1127 1059 1014 1023 1056 1068 965 879 916 876 680 910 512 501 617 702 753 965 1436 1468 1380 1525 1627 1702
1893 1973 2000 2068 2046 2026 2105 2022 1939 1721 1577 1526 1129 1976 1637 1644 1296 1187 1161 1035 1328 1709 1844 1761 1604 1527 1617 1778 1312 1435 1501 1427 1359 1368 1476 1489 1359 1213 1127 1180 1255 1322 1206 1183 1196 1140 780 785 912 888 722 514 502 628 699 714 744 1099 1293 1210 1365 1860 2154
1542 1920 2156 2192 2136 2139 2174 2180 2308 2093 1808 1793 1684 1602 1492 1596 1808 1785 1518 1611 1670 1547 1501 1627 1710 1779 1736 1463 1490 1429 1416 1422 1308 1253 1380 1399 1340 1268 1222 1119 1046 1208 1276 1219 1053 1018 846 739 733 750 723 644 503 513 661 734 736 764 896 944 953 1092 1691
1384 1532 1418 1456 1528 1388 1649 1973 1990 2016 2115 1818 1863 1848 1545 1505 1352 1262 1239 1397 1428 1068 1273 1504 1520 1691 1862 1728 1384 1478 1430 1475 1371 1353 1359 1363 1309 1278 1291 1297 1274 1204 1109 1034 860 840 789 806 698 574 535 472 495 439 530 661 744 778 895 880 1044 1197 1466
1465 1373 1288 1177 1071 930 974 970 858 996 1123 1230 1371 1451 1682 1822 1694 1484 1357 1317 1079 1276 1249 956 1190 1329 1287 1587 1594 1407 1352 1432 1616 1471 1338 1272 1296 1296 1290 1286 1302 1261 1134 988 947 922 831 597 593 548 513 195 366 550 570 601 637 694 958 1079 1093 1400 1971
1168 1204 1318 1260 1132 908 839 964 1016 1155 1106 1035 1005 1065 1128 1152 1427 1475 1422 1382 1358 1427 1348 1216 1135 967 956 929 1173 1159 1332 1204 1376 1591 1476 1292 1264 1266 1248 1256 1248 1163 1066 968 884 789 718 534 391 389 363 302 273 133 272 456 605 656 820 1217 1339 1486 2058
1010 1076 1163 1055 863 716 944 902 857 949 1022 861 874 920 922 1005 917 954 1283 1566 1676 1609 1552 1296 1058 979 974 927 952 975 1069 917 857 1069 1265 1121 1327 1334 1272 1238 1166 1092 1038 958 864 706 527 497 434 290 328 286 214 157 118 139 164 286 601 993 1442 1733 2011
812 825 871 799 796 814 945 944 1035 1007 898 792 739 798 847 914 947 949 806 918 1365 1627 1764 1532 1234 1366 1321 1409 1200 1342 1310 1218 1098 995 1007 1174 1238 1256 1250 1215 1118 1009 958 928 878 732 437 312 373 246 173 221 172 138 191 223 210 220 376 874 1597 1897 2060
930 867 806 754 697 630 862 996 867 804 723 659 676 673 636 722 770 902 738 729 911 1127 1541 1548 1190 1098 1411 1511 1694 1578 1593 1354 1086 801 732 1117 1312 1413 1089 1090 1039 1016 888 706 726 746 624 517 490 350 241 214 105 109 130 213 250 262 554 1087 1697 1980 2057
1192 1040 876 854 769 661 972 922 837 747 572 632 600 578 627 574 696 765 795 777 862 752 1259 1803 1510 1484 1406 1359 1343 1477 1475 1546 1732 1623 1051 1021 1386 1391 1144 959 935 1004 1082 784 663 578 500 561 508 399 308 246 120 152 321 297 232 345 892 1220 1734 1994 2043
1501 1156 1020 903 694 902 922 746 589 557 598 592 600 650 617 664 660 697 669 804 801 738 884 990 1285 1562 1492 1302 1389 1461 1276 1392 1610 1590 1621 1465 1293 1326 1264 1108 993 904 1435 1926 1385 528 488 374 320 390 370 217 216 214 182 513 870 693 864 1263 1543 1783 1817
1411 1179 1128 922 765 806 714 748 680 620 592 625 668 710 673 663 621 592 661 657 672 708 704 738 797 929 1116 1532 1546 1327 1120 1358 1587 1660 1593 1960 2224 2349 2074 1600 1178 830 1206 1815 2099 1975 1433 470 296 288 238 268 233 222 124 225 575 1289 1187 1177 1360 1531 1624
1462 1261 1158 1015 805 746 761 732 675 616 661 692 714 723 687 635 638 666 679 656 665 644 657 736 793 833 920 1000 1082 1331 1365 1266 1276 1625 1766 1743 1918 2232 2167 2004 1738 1354 995 1306 1664 1762 1560 1404 424 322 288 286 302 249 251 280 337 1476 2158 2294 1641 1492 1558
1430 1290 1150 1036 819 731 708 696 664 657 642 647 705 692 682 711 686 710 662 713 647 649 671 696 697 676 680 777 801 892 1116 1254 1296 1338 1432 1563 1619 1689 1767 1716 1619 1583 1465 1355 1490 1570 1576 1436 1247 382 312 300 459 666 689 766 916 1725 1850 2066 2667 2236 1659
1464 1443 1218 1084 865 715 628 622 634 649 607 635 728 722 754 742 698 624 694 741 590 649 617 602 561 436 449 508 528 567 657 848 1110 1288 1338 1386 1500 1665 1724 1647 1446 1368 1538 1614 1397 1306 1410 1460 1151 948 153 245 253 671 869 970 1642 1500 1685 1878 2153 3120 1990
1254 1235 1119 908 775 678 567 534 619 696 658 683 778 770 729 689 685 589 704 416 517 487 306 214 196 133 246 337 391 415 464 546 745 913 1176 1401 1438 1385 1580 1661 1833 1738 1506 1317 1293 1463 1557 1583 1286 1052 876 351 238 590 937 1155 1322 1381 1595 1734 1874 2500 3222
1061 939 917 858 765 634 577 489 601 656 686 721 770 817 772 780 587 504 583 494 339 50 18 6 2 2 137 281 210 182 309 392 472 629 781 932 1262 1485 1626 1894 2028 2056 1842 1550 1263 1392 1542 1655 1627 1099 889 955 346 398 708 1113 1431 1354 1468 1618 1737 2003 2958
1040 1022 965 887 698 586 527 515 672 749 771 748 710 653 531 398 449 479 462 79 16 2 0 0 0 0 0 0 253 286 294 277 300 379 544 648 752 920 1109 1321 1649 1824 2013 2034 1797 1400 1256 1277 1406 1471 980 1270 1393 747 527 723 1186 1346 1376 1378 1402 1489 2626
1085 1041 983 800 664 585 560 560 686 759 681 677 556 470 456 424 503 318 26 167 1 10 0 0 0 0 0 0 0 0 0 0 1 86 314 459 546 669 798 954 1141 1376 1779 1919 1900 1781 1458 1384 1367 1435 1515 1086 1184 1418 1105 812 1043 1307 1348 1309 1263 1232 1838
1138 1073 896 781 698 464 475 609 746 663 532 405 294 299 405 516 322 44 10 145 86 7 0 0 0 0 0 1 1 2 0 0 0 3 15 188 412 541 657 731 912 1156 1361 1486 1585 1563 1485 1261 1232 1220 1344 1436 1204 1337 1082 946 1013 1209 1237 1130 1126 1322 1276
1070 933 820 664 415 115 516 744 710 540 384 162 365 471 354 158 48 12 0 0 0 0 0 0 1 1 1 2 6 2 2 3 6 4 5 12 74 286 514 574 606 886 1042 1084 1199 1193 1176 1166 1088 1074 1359 1420 1357 1064 999 922 938 1238 1447 1452 1439 1480 1322
1042 754 530 372 334 500 666 689 564 441 152 107 198 209 125 64 17 0 0 0 0 1 1 4 3 3 1 4 6 3 3 9 7 2 2 18 88 224 514 605 638 749 906 1005 1030 1060 1080 1088 1102 1130 1221 1300 1333 1310 1063 826 818 787 920 1108 1167 1279 1118
724 544 508 504 493 528 660 599 502 358 60 78 111 99 80 26 0 11 0 0 4 30 37 10 1 2 4 6 4 4 4 6 2 4 22 106 339 393 429 505 577 670 782 933 1089 1145 1181 1150 1142 1162 1123 1090 1158 1268 1291 1104 750 773 817 774 899 975 935
621 625 585 418 374 1002 579 522 405 248 26 9 4 51 39 1 0 1 1 52 51 50 13 2 2 2 2 5 5 5 3 6 15 36 65 220 346 437 473 513 619 696 761 821 840 871 830 784 787 770 788 820 899 1098 1180 1125 1054 811 848 881 807 947 704
618 587 462 412 1002 489 534 452 332 110 15 0 1 8 0 0 54 77 80 63 60 36 3 2 4 2 2 4 7 5 4 6 10 47 86 181 407 492 500 529 648 708 744 680 668 674 669 658 644 651 623 636 613 589 891 1099 1011 1168 804 930 993 1196 863
494 459 511 562 361 452 341 250 51 28 10 2 0 0 0 0 92 85 52 4 8 13 1 4 5 4 2 2 2 4 4 2 3 10 47 114 286 366 486 512 556 607 620 644 668 674 662 577 479 390 374 303 186 240 422 532 573 1065 993 805 948 1365 1178
304 5 0 174 290 265 266 19 3 0 0 1 5 0 0 0 30 25 17 0 0 4 16 14 6 4 2 1 3 6 5 4 4 3 6 50 133 259 318 404 425 414 413 402 391 403 411 388 304 302 248 0 54 41 267 396 367 648 1042 913 798 1169 1399
338 320 264 29 190 286 45 0 0 0 0 0 0 0 0 0 3 4 35 0 30 21 6 1 7 2 0 1 3 4 3 4 5 3 0 0 0 0 50 135 206 274 304 297 288 257 234 63 0 0 140 253 292 309 243 379 442 458 732 1032 1016 959 1020
280 0 0 19 87 0 0 0 0 0 0 0 0 0 0 0 2 21 2 5 112 0 0 0 0 0 0 1 2 2 3 4 3 4 0 0 0 0 0 1 2 5 2 1 1 1 0 1 0 84 111 188 36 202 289 333 302 485 643 808 901 926 847
0 0 0 0 0 0 0 0 0 0 0 0 0 0 0 0 0 1 0 0 0 0 0 0 0 0 0 0 0 2 2 1 0 0 0 0 0 0 0 0 0 1 4 6 5 4 4 4 4 2 2 1 1 1 1 122 24 23 80 321 524 590 296
0 0 0 0 0 0 0 0 0 0 0 0 0 0 0 0 1 0 0 0 0 0 0 0 0 0 1 2 1 2 3 2 2 0 0 0 0 0 0 0 1 1 0 0 2 2 2 4 8 2 3 1 1 1 101 170 85 15 13 1 0 2 3
0 0 0 0 0 0 0 0 0 0 0 0 0 0 0 0 0 0 0 0 0 0 0 0 0 0 2 4 2 2 5 4 2 0 0 0 0 0 0 0 0 0 1 11 24 4 2 0 23 28 11 2 0 0 0 0 6 10 4 4 4 1 0
0 0 0 0 0 0 0 0 0 0 0 0 0 0 0 0 0 0 0 0 0 0 0 0 0 0 0 0 1 2 2 0 0 0 0 0 0 0 0 0 0 0 1 0 0 0 0 1 0 0 0 0 1 0 0 0 0 0 0 0 0 0 0
0 0 0 0 0 0 0 0 0 0 0 0 0 0 0 0 0 0 0 0 0 0 0 0 0 0 0 0 1 2 2 2 1 0 0 0 0 0 0 0 0 0 0 0 0 0 0 0 0 0 0 0 0 0 0 0 0 0 0 0 0 0 0
0 0 0 0 0 0 0 0 0 0 0 0 0 0 0 0 0 0 0 0 0 0 0 0 0 0 0 1 5 5 4 2 1 0 0 0 0 0 0 0 0 0 0 0 0 0 0 0 0 0 0 0 0 0 0 0 0 0 0 0 0 0 0
Wind_Speed
8 8 7 9 9 6 5 7 10 10 10 10 8 6 4 5 8 8 7 7 5 4 2 3 5 5 3 1 3 3 5 5 4 4 6 9 11 11 11 12 11 12 13 12 12 11 11 10 9 7 6 5 4 4 4 4 4 4 4 2 3 4 3
8 8 9 9 10 7 4 5 7 8 7 9 8 6 4 5 7 6 6 7 7 6 4 4 5 5 4 2 3 3 3 4 4 4 6 8 10 11 10 10 11 11 12 11 11 11 11 10 9 7 6 5 4 4 3 4 4 4 4 4 3 4 4
9 9 9 8 8 8 7 5 6 5 4 6 8 9 7 6 6 5 7 9 9 9 8 5 7 7 5 3 3 3 3 3 3 3 3 4 6 8 9 10 10 10 10 10 10 10 10 9 8 7 5 4 4 4 4 4 4 4 4 4 4 4 5
11 9 7 6 7 9 9 7 6 5 3 4 6 9 10 9 8 8 8 9 9 8 4 9 18 19 16 12 5 3 4 4 3 2 3 4 4 6 9 10 10 10 10 10 9 9 8 7 6 7 6 5 4 4 5 4 4 4 4 5 4 4 4
11 10 9 7 6 6 7 6 6 6 4 2 4 8 12 12 10 10 10 11 9 7 8 11 14 13 8 8 5 5 2 2 4 3 4 5 5 6 6 7 9 9 9 9 9 8 7 7 7 6 6 6 4 5 4 4 4 5 5 6 5 6 4
12 12 10 9 7 6 5 5 5 5 5 4 3 5 9 13 15 13 14 13 10 13 16 17 10 9 7 5 5 6 3 3 3 4 4 5 6 6 6 7 7 8 9 8 10 8 7 7 7 8 7 6 4 4 5 5 4 6 6 6 6 6 5
11 11 10 9 8 7 7 7 7 7 7 5 6 7 8 10 13 14 17 15 12 12 14 14 8 9 8 8 8 9 8 4 5 4 6 6 6 7 7 7 8 8 8 10 9 9 7 7 7 7 8 8 7 6 7 7 6 7 8 8 7 6 6
11 10 10 11 9 7 6 6 7 8 9 11 12 12 11 10 11 12 13 12 13 12 12 11 11 9 10 11 9 8 9 10 7 6 8 8 8 8 8 8 9 9 9 9 9 9 9 8 8 8 8 10 10 9 9 8 7 8 9 9 8 7 8
8 10 11 12 11 9 8 7 7 7 8 10 11 11 12 13 12 12 11 12 13 15 12 12 14 11 9 10 10 10 10 13 13 9 9 9 11 10 10 10 10 10 10 10 10 10 10 10 9 9 8 8 11 11 11 11 10 10 10 9 9 8 9
10 9 8 8 8 9 10 10 8 7 7 7 9 11 12 12 13 14 14 12 13 14 14 16 17 17 12 10 8 9 16 21 22 24 28 23 17 11 12 14 12 12 10 10 11 11 11 11 11 12 10 10 10 11 12 12 12 12 11 10 10 10 10
8 9 10 9 10 11 11 11 10 10 9 8 6 8 10 12 13 15 15 15 14 15 17 20 21 13 14 16 17 20 19 18 22 25 20 16 18 20 18 15 14 15 12 11 10 11 12 11 11 13 13 11 11 11 11 11 11 12 12 12 12 12 12
10 11 12 11 10 11 11 12 13 13 13 10 8 8 9 10 12 13 14 15 15 16 18 21 21 18 19 22 24 19 16 18 20 19 11 7 13 15 16 20 19 16 15 14 12 12 12 12 12 12 14 13 12 12 11 11 12 12 12 12 12 12 13
11 12 13 14 13 11 12 13 14 15 14 15 13 10 8 9 10 11 12 14 16 16 17 18 21 18 18 22 21 17 15 18 19 19 16 17 17 17 17 17 19 23 23 18 14 13 13 13 14 13 13 13 14 13 13 12 12 12 12 13 13 13 13
13 12 12 13 13 15 15 14 14 15 15 15 15 14 12 9 10 10 12 13 15 16 18 18 18 19 20 20 20 20 21 21 21 20 17 16 18 19 19 18 19 22 25 27 25 18 14 14 14 14 14 13 13 13 14 14 13 13 13 14 14 14 13
14 13 13 14 14 15 15 16 15 16 15 15 14 15 14 13 10 10 12 13 15 16 18 17 19 19 18 18 20 21 22 23 22 23 21 19 20 22 22 21 21 22 27 27 26 25 23 19 16 15 15 14 14 13 14 15 14 15 15 14 14 14 13
14 14 15 15 17 16 17 17 17 16 17 16 17 16 15 15 13 12 13 13 14 16 16 18 18 19 20 19 20 21 22 22 23 23 23 21 19 20 22 27 32 31 27 23 23 24 24 24 21 18 17 16 15 14 14 14 15 14 15 16 16 16 15
16 17 17 18 18 18 18 18 17 18 19 19 18 17 16 16 15 15 13 14 15 15 16 18 19 19 19 19 21 22 21 20 21 23 23 23 22 23 26 34 28 20 21 23 23 23 25 25 24 21 21 19 17 15 15 15 16 14 17 17 17 18 17
20 21 21 19 20 21 21 20 19 19 20 20 19 18 17 16 16 16 15 14 15 16 17 19 19 19 18 18 19 21 22 21 21 22 23 24 24 25 29 31 22 18 20 22 22 26 28 27 25 23 21 21 19 18 17 17 16 16 17 18 18 18 19
23 24 23 22 22 22 22 21 20 21 21 21 21 20 18 18 17 16 15 15 15 18 20 20 19 19 18 17 19 20 20 20 21 22 23 24 25 26 28 28 23 22 22 22 24 28 28 27 27 26 24 23 22 20 20 20 18 19 19 19 20 19 21
25 25 24 23 24 25 23 21 20 21 22 22 21 21 21 20 19 18 17 18 18 nan nan nan nan nan 18 18 19 19 19 19 19 21 22 23 25 27 27 27 25 25 26 26 27 26 25 25 26 27 27 26 24 23 22 23 22 22 22 21 22 22 27
26 25 25 26 25 24 24 22 21 22 23 23 22 22 22 21 20 19 21 nan nan nan nan nan nan nan nan nan 18 18 18 18 18 18 20 21 23 24 26 27 27 27 27 27 27 26 24 24 25 27 29 30 29 27 25 24 24 25 25 25 25 28 33
26 26 26 24 26 24 24 22 23 24 24 22 23 23 23 22 22 24 nan 21 nan nan nan nan nan nan nan nan nan nan nan nan nan nan 18 19 20 21 23 25 26 27 28 29 29 29 29 28 29 28 30 30 29 28 26 26 26 27 29 29 32 35 33
27 26 27 24 26 25 23 24 25 25 24 23 23 23 23 24 25 nan nan 23 nan nan nan nan nan nan nan nan nan nan nan nan nan nan nan 17 17 18 20 22 24 26 28 28 28 29 30 30 31 34 34 27 26 26 25 25 27 27 28 34 39 37 37
26 28 28 27 26 26 25 25 27 27 27 26 25 25 27 27 nan nan nan nan nan nan nan nan nan nan nan nan nan nan nan nan nan nan nan nan nan 18 18 20 22 23 26 27 28 28 29 32 34 34 28 26 27 28 26 26 30 29 29 33 37 38 39
26 26 27 28 28 26 25 26 28 29 29 28 27 24 26 nan nan nan nan nan nan nan nan nan nan nan nan nan nan nan nan nan nan nan nan nan nan 20 20 21 21 22 24 25 26 26 28 31 32 31 29 26 28 29 29 31 34 35 35 33 30 35 38
23 23 24 25 24 24 25 27 29 29 nan nan 26 nan nan nan nan nan nan nan nan nan nan nan nan nan nan nan nan nan nan nan nan nan nan 23 23 23 23 23 23 23 23 25 25 26 28 30 31 30 28 27 29 33 34 35 35 36 39 35 33 34 38
21 23 23 23 22 25 27 28 29 29 nan nan nan nan nan nan nan nan nan nan nan nan nan nan nan nan nan nan nan nan nan nan nan nan nan 22 23 23 25 26 27 27 29 30 29 28 27 29 32 32 34 35 36 36 37 37 39 40 41 42 38 37 39
20 20 21 21 26 27 27 28 28 27 nan nan nan nan nan nan nan nan nan nan nan nan nan nan nan nan nan nan nan nan nan nan nan nan nan 22 23 25 26 26 27 28 29 30 31 33 33 34 34 36 36 36 35 35 36 37 42 41 44 44 43 40 38
23 23 25 27 26 26 28 27 nan nan nan nan nan nan nan nan nan nan nan nan nan nan nan nan nan nan nan nan nan nan nan nan nan nan nan 23 24 25 28 28 29 29 30 31 33 34 34 34 35 36 36 35 34 34 35 35 35 43 43 47 49 51 51
23 nan nan 25 26 25 26 nan nan nan nan nan nan nan nan nan nan nan nan nan nan nan nan nan nan nan nan nan nan nan nan nan nan nan nan nan 26 27 29 30 30 31 31 32 32 33 34 33 35 36 36 nan nan nan 33 34 36 41 47 48 54 53 53
25 25 25 nan 24 24 nan nan nan nan nan nan nan nan nan nan nan nan nan nan nan nan nan nan nan nan nan nan nan nan nan nan nan nan nan nan nan nan nan 31 32 33 32 34 34 34 34 nan nan nan 37 38 37 34 34 36 37 38 45 53 53 52 54
24 nan nan nan nan nan nan nan nan nan nan nan nan nan nan nan nan nan nan nan 21 nan nan nan nan nan nan nan nan nan nan nan nan nan nan nan nan nan nan nan nan nan nan nan nan nan nan nan nan nan 39 40 nan 37 36 37 38 39 40 43 48 50 49
nan nan nan nan nan nan nan nan nan nan nan nan nan nan nan nan nan nan nan nan nan nan nan nan nan nan nan nan nan nan nan nan nan nan nan nan nan nan nan nan nan nan nan nan nan nan nan nan nan nan nan nan nan nan nan 39 nan nan nan 38 40 39 38
nan nan nan nan nan nan nan nan nan nan nan nan nan nan nan nan nan nan nan nan nan nan nan nan nan nan nan nan nan nan nan nan nan nan nan nan nan nan nan nan nan nan nan nan nan nan nan nan nan nan nan nan nan nan 39 38 nan nan nan nan nan nan nan
nan nan nan nan nan nan nan nan nan nan nan nan nan nan nan nan nan nan nan nan nan nan nan nan nan nan nan nan nan nan nan nan nan nan nan nan nan nan nan nan nan nan nan nan nan nan nan nan nan nan nan nan nan nan nan nan nan nan nan nan nan nan nan
nan nan nan nan nan nan nan nan nan nan nan nan nan nan nan nan nan nan nan nan nan nan nan nan nan nan nan nan nan nan nan nan nan nan nan nan nan nan nan nan nan nan nan nan nan nan nan nan nan nan nan nan nan nan nan nan nan nan nan nan nan nan nan
nan nan nan nan nan nan nan nan nan nan nan nan nan nan nan nan nan nan nan nan nan nan nan nan nan nan nan nan nan nan nan nan nan nan nan nan nan nan nan nan nan nan nan nan nan nan nan nan nan nan nan nan nan nan nan nan nan nan nan nan nan nan nan
nan nan nan nan nan nan nan nan nan nan nan nan nan nan nan nan nan nan nan nan nan nan nan nan nan nan nan nan nan nan nan nan nan nan nan nan nan nan nan nan nan nan nan nan nan nan nan nan nan nan nan nan nan nan nan nan nan nan nan nan nan nan nan
Wind_Direction
278 276 272 272 275 282 266 259 264 266 276 269 269 288 277 202 210 220 219 221 236 249 266 283 311 290 301 121 125 135 118 121 157 174 174 166 166 170 171 174 174 173 180 183 176 172 172 179 185 188 189 183 187 190 189 189 184 162 158 186 232 242 240
278 267 270 264 272 287 282 264 268 268 269 272 264 261 241 221 221 215 214 224 222 215 207 232 259 265 274 194 158 156 129 114 138 168 184 180 173 171 172 175 177 177 182 183 186 183 182 177 185 195 197 191 183 193 192 191 193 193 194 209 233 218 219
261 259 259 266 276 285 297 279 280 286 291 264 258 249 250 237 233 214 210 230 226 207 199 214 238 239 233 206 177 154 135 136 151 161 186 189 180 172 172 176 179 181 181 185 194 195 190 179 187 193 201 202 197 200 200 201 196 206 215 222 231 230 220
283 287 294 292 293 295 301 310 304 294 260 241 248 249 244 242 232 224 231 243 244 231 225 231 233 217 200 192 170 176 149 144 156 190 201 206 204 197 185 181 183 188 190 189 196 204 199 195 190 193 196 208 203 199 210 214 216 227 250 260 254 244 236
292 298 303 308 315 301 295 296 291 301 330 261 232 236 243 244 242 232 236 247 253 257 260 245 246 252 242 239 173 180 184 158 167 189 214 217 224 226 211 192 193 193 200 203 204 211 211 214 215 211 207 213 205 212 218 230 235 249 259 266 267 254 255
304 310 320 326 328 323 315 301 293 307 307 286 271 252 242 241 242 244 240 240 245 246 251 249 238 243 232 194 208 183 212 223 217 203 211 226 233 230 228 223 213 205 208 216 221 220 221 220 223 229 226 224 222 226 230 238 240 253 260 265 269 268 264
319 323 328 328 327 323 301 284 268 253 267 279 255 240 241 235 237 240 244 243 230 233 249 264 263 249 240 214 185 196 188 251 248 245 225 225 230 228 228 233 235 229 222 224 226 235 234 234 235 238 245 251 249 253 252 247 247 249 253 259 264 266 267
324 322 328 331 336 329 308 286 267 253 252 253 253 249 252 256 260 244 246 253 255 251 242 250 258 247 235 228 205 207 180 187 243 242 240 234 223 222 227 230 239 243 244 244 238 243 247 248 247 242 250 258 259 257 263 263 264 261 260 262 262 263 262
310 320 328 332 335 336 329 320 307 284 267 265 262 257 254 251 255 256 261 260 250 251 245 243 256 261 241 215 208 205 212 206 189 234 250 244 226 222 225 225 228 236 243 249 249 247 249 254 253 250 253 253 256 260 257 261 264 263 266 267 269 271 266
299 300 310 321 332 336 338 341 336 303 278 260 252 251 248 248 249 251 252 250 255 257 259 261 247 246 260 267 266 233 205 199 201 208 210 209 218 225 229 229 231 234 237 244 249 254 251 254 258 256 257 259 257 257 255 259 261 261 264 270 271 271 271
298 307 315 325 330 335 336 337 334 334 330 312 280 258 248 245 245 248 250 250 246 250 252 253 260 249 242 243 235 242 238 221 219 226 219 212 217 214 217 230 238 240 244 244 246 253 256 256 257 261 262 263 261 261 262 262 263 262 263 264 265 271 271
309 313 319 319 326 332 334 339 340 343 339 331 311 282 259 252 251 248 250 251 251 248 246 258 255 251 248 240 240 247 256 261 263 266 272 246 230 229 228 224 228 240 247 246 248 254 259 264 264 264 268 266 267 270 271 270 268 267 266 269 271 272 270
309 314 315 319 332 335 330 333 341 343 340 336 333 318 297 274 256 250 248 248 251 251 250 253 260 264 250 255 263 259 255 254 256 253 237 231 237 239 231 226 226 232 236 240 250 256 256 261 265 265 269 274 274 272 274 276 275 273 272 271 274 275 272
295 301 302 309 312 319 328 338 337 335 334 332 333 332 319 297 272 258 246 246 247 251 253 252 254 257 257 260 258 259 253 254 257 257 253 238 238 247 248 241 234 234 242 239 236 238 253 258 259 263 267 274 276 275 272 274 274 276 278 275 276 275 272
293 298 299 303 309 314 320 327 331 332 334 332 328 324 322 314 297 271 255 248 245 247 249 253 255 256 255 259 261 252 251 254 254 255 256 248 238 237 244 247 246 237 233 236 238 239 238 243 258 263 264 266 271 272 270 270 273 271 272 275 274 272 271
293 289 296 299 305 307 310 317 322 326 324 324 324 321 319 316 311 295 277 259 251 246 246 250 252 257 256 254 253 254 254 252 252 251 251 252 248 245 244 243 241 244 247 242 240 243 246 247 253 264 269 267 264 267 266 266 266 277 298 286 274 271 270
284 286 293 297 296 296 299 305 311 314 316 321 321 321 317 314 315 312 294 274 260 251 247 250 250 253 255 256 256 255 257 257 251 252 252 250 249 246 245 250 249 253 262 265 259 253 249 247 253 263 268 270 268 267 262 264 263 291 293 296 295 278 274
279 288 295 293 288 286 289 296 303 308 314 317 319 320 316 311 311 311 303 287 266 257 251 250 250 248 247 249 252 256 255 250 250 253 252 251 249 247 249 258 260 254 252 253 253 251 246 244 245 250 263 269 273 272 267 262 271 289 291 293 293 287 273
282 287 290 288 284 283 284 291 299 305 308 312 316 319 319 314 306 303 305 298 278 261 256 254 251 247 244 244 246 249 252 250 247 248 250 252 251 250 251 256 258 254 251 251 254 253 248 242 243 243 246 259 267 273 271 266 278 286 289 288 290 289 275
288 288 285 282 280 280 280 282 289 295 302 308 314 316 316 312 306 304 303 298 285 nan nan nan nan nan 246 244 244 244 246 246 245 245 246 249 251 252 254 256 258 255 252 249 250 255 254 251 248 247 246 248 260 267 269 272 278 287 287 286 286 286 270
291 290 289 284 280 277 278 282 285 288 293 299 304 306 306 306 304 295 291 nan nan nan nan nan nan nan nan nan 245 244 244 243 243 242 245 246 250 254 255 256 255 257 256 255 256 258 260 258 255 252 251 247 244 256 267 267 281 289 292 287 285 278 271
288 288 288 285 284 282 281 282 286 288 291 293 295 302 304 302 300 298 nan 295 nan nan nan nan nan nan nan nan nan nan nan nan nan nan 239 242 246 252 257 259 259 258 259 258 256 254 253 250 252 253 252 249 247 248 258 262 268 281 288 288 281 281 270
285 283 284 282 283 283 282 282 283 284 284 288 294 295 295 294 295 nan nan 289 nan nan nan nan nan nan nan nan nan nan nan nan nan nan nan 243 247 253 258 261 261 262 261 261 257 258 259 256 254 251 247 244 248 253 255 257 262 268 280 284 282 280 269
278 281 283 281 275 275 278 280 280 279 281 284 283 289 292 294 nan nan nan nan nan nan nan nan nan nan nan nan nan nan nan nan nan nan nan nan nan 248 257 261 263 264 263 262 260 257 257 259 259 259 259 259 261 263 260 258 256 255 263 277 286 283 277
284 285 285 284 283 284 285 283 282 280 280 282 285 288 290 nan nan nan nan nan nan nan nan nan nan nan nan nan nan nan nan nan nan nan nan nan nan 244 254 259 261 263 265 265 264 263 260 261 263 264 264 263 261 262 262 259 257 256 259 269 278 272 268
287 285 282 281 281 287 284 283 278 278 nan nan 289 nan nan nan nan nan nan nan nan nan nan nan nan nan nan nan nan nan nan nan nan nan nan 249 249 248 249 250 252 256 263 265 265 263 262 260 261 264 263 258 255 253 253 259 261 261 263 266 266 271 278
294 291 288 285 286 280 281 281 282 285 nan nan nan nan nan nan nan nan nan nan nan nan nan nan nan nan nan nan nan nan nan nan nan nan nan 251 252 253 253 253 254 254 255 257 256 258 260 259 257 256 251 247 248 251 250 253 256 254 261 266 269 278 279
284 280 281 282 282 283 283 281 281 281 nan nan nan nan nan nan nan nan nan nan nan nan nan nan nan nan nan nan nan nan nan nan nan nan nan 249 253 255 254 254 256 258 259 259 260 259 256 254 252 251 249 247 247 248 248 247 251 256 251 256 267 278 275
285 281 279 279 281 284 285 283 nan nan nan nan nan nan nan nan nan nan nan nan nan nan nan nan nan nan nan nan nan nan nan nan nan nan nan 252 252 256 257 256 257 258 260 262 262 260 257 255 255 254 252 249 247 247 250 248 248 255 257 256 258 261 260
281 nan nan 283 287 286 283 nan nan nan nan nan nan nan nan nan nan nan nan nan nan nan nan nan nan nan nan nan nan nan nan nan nan nan nan nan 256 257 259 259 259 259 259 261 263 262 259 255 256 256 254 nan nan nan 246 248 249 251 258 260 261 260 260
283 282 282 nan 288 285 nan nan nan nan nan nan nan nan nan nan nan nan nan nan nan nan nan nan nan nan nan nan nan nan nan nan nan nan nan nan nan nan nan 260 261 260 257 258 258 258 257 nan nan nan 255 253 250 248 248 251 252 251 254 258 257 257 261
271 nan nan nan nan nan nan nan nan nan nan nan nan nan nan nan nan nan nan nan 280 nan nan nan nan nan nan nan nan nan nan nan nan nan nan nan nan nan nan nan nan nan nan nan nan nan nan nan nan nan 251 253 nan 252 251 252 252 251 252 255 257 256 255
nan nan nan nan nan nan nan nan nan nan nan nan nan nan nan nan nan nan nan nan nan nan nan nan nan nan nan nan nan nan nan nan nan nan nan nan nan nan nan nan nan nan nan nan nan nan nan nan nan nan nan nan nan nan nan 253 nan nan nan 247 252 253 254
nan nan nan nan nan nan nan nan nan nan nan nan nan nan nan nan nan nan nan nan nan nan nan nan nan nan nan nan nan nan nan nan nan nan nan nan nan nan nan nan nan nan nan nan nan nan nan nan nan nan nan nan nan nan 248 252 nan nan nan nan nan nan nan
nan nan nan nan nan nan nan nan nan nan nan nan nan nan nan nan nan nan nan nan nan nan nan nan nan nan nan nan nan nan nan nan nan nan nan nan nan nan nan nan nan nan nan nan nan nan nan nan nan nan nan nan nan nan nan nan nan nan nan nan nan nan nan
nan nan nan nan nan nan nan nan nan nan nan nan nan nan nan nan nan nan nan nan nan nan nan nan nan nan nan nan nan nan nan nan nan nan nan nan nan nan nan nan nan nan nan nan nan nan nan nan nan nan nan nan nan nan nan nan nan nan nan nan nan nan nan
nan nan nan nan nan nan nan nan nan nan nan nan nan nan nan nan nan nan nan nan nan nan nan nan nan nan nan nan nan nan nan nan nan nan nan nan nan nan nan nan nan nan nan nan nan nan nan nan nan nan nan nan nan nan nan nan nan nan nan nan nan nan nan
nan nan nan nan nan nan nan nan nan nan nan nan nan nan nan nan nan nan nan nan nan nan nan nan nan nan nan nan nan nan nan nan nan nan nan nan nan nan nan nan nan nan nan nan nan nan nan nan nan nan nan nan nan nan nan nan nan nan nan nan nan nan nan